FW1609 Weather Reports


time (UTC)temp
C
wind
direction
speed
KPH
gust
KPH
rain 1hr
cm
rain 24hr
cm
rain mn
cm
humidity
%
barometer
mb
20260510094555 13 98 12.9 19.3 0.00 0.00 0.00 74 1028.8
20260510093053 14 79 12.9 20.9 0.00 0.00 0.00 73 1028.6
20260510091551 14 97 16.1 24.1 0.00 0.00 0.00 71 1028.3
20260510090043 14 101 16.1 20.9 0.00 0.00 0.00 68 1028.1
20260510084541 13 108 9.7 19.3 0.00 0.00 0.00 66 1027.8
20260510083035 14 111 8.0 11.3 0.00 0.00 0.00 64 1027.6
20260510081532 15 104 8.0 12.9 0.00 0.00 0.00 63 1027.3
20260510080031 15 110 9.7 14.5 0.00 0.00 0.00 62 1027.1
20260510074522 16 114 9.7 16.1 0.00 0.00 0.00 60 1026.8
20260510073022 16 101 12.9 17.7 0.00 0.00 0.00 58 1026.5
20260510071513 17 100 11.3 19.3 0.00 0.00 0.00 56 1026.2
20260510070009 18 117 14.5 22.5 0.00 0.00 0.00 54 1026.1
20260510064522 18 113 9.7 19.3 0.00 0.00 0.00 53 1025.9
20260510063006 19 95 17.7 22.5 0.00 0.00 0.00 53 1025.8
20260510061505 20 123 11.3 20.9 0.00 0.00 0.00 52 1025.7
20260510060100 20 116 14.5 20.9 0.00 0.00 0.00 52 1025.5
20260510054605 20 141 9.7 20.9 0.00 0.00 0.00 52 1025.5
20260510053058 20 122 9.7 19.3 0.00 0.00 0.00 52 1025.4
20260510051604 20 133 12.9 20.9 0.00 0.00 0.00 52 1025.3
20260510050054 20 180 9.7 24.1 0.00 0.00 0.00 52 1025.2
20260510044555 20 150 6.4 20.9 0.00 0.00 0.00 52 1025.1
20260510043053 20 99 11.3 20.9 0.00 0.00 0.00 51 1025.1
20260510041551 20 121 12.9 24.1 0.00 0.00 0.00 51 1025.0
20260510040047 20 127 6.4 19.3 0.00 0.00 0.00 51 1025.0
20260510034606 20 108 6.4 22.5 0.00 0.00 0.00 51 1025.0
20260510033048 20 150 3.2 14.5 0.00 0.00 0.00 51 1025.1
20260510031543 20 108 11.3 16.1 0.00 0.00 0.00 52 1025.2
20260510030037 20 150 9.7 16.1 0.00 0.00 0.00 52 1025.5
20260510024535 19 191 4.8 11.3 0.00 0.00 0.00 53 1025.7
20260510023032 18 180 4.8 14.5 0.00 0.00 0.00 54 1026.0
20260510021533 18 110 6.4 16.1 0.00 0.00 0.00 54 1026.2
20260510020058 18 133 6.4 14.5 0.00 0.00 0.00 55 1026.5
20260510014601 18 112 9.7 16.1 0.00 0.00 0.00 56 1026.8
20260510013023 17 38 0.0 12.9 0.00 0.00 0.00 58 1027.0
20260510011521 17 214 1.6 12.9 0.00 0.00 0.00 60 1027.2
20260510010013 16 126 8.0 14.5 0.00 0.00 0.00 63 1027.3
20260510004510 15 145 0.0 12.9 0.00 0.00 0.00 66 1027.6
20260510003006 15 194 1.6 4.8 0.00 0.00 0.00 68 1027.8
20260510001502 13 114 1.6 8.0 0.00 0.00 0.00 72 1027.9
20260510000116 12 122 1.6 8.0 0.00 0.00 0.00 74 1027.9
20260509234550 11 112 0.0 4.8 0.00 0.00 0.00 79 1028.0
20260509233044 10 4 0.0 1.6 0.00 0.00 0.00 86 1028.0
20260509231543 8 4 0.0 0.0 0.00 0.00 0.00 91 1028.0
20260509230036 7 4 0.0 3.2 0.00 0.00 0.00 92 1028.0
20260509224533 6 5 0.0 1.6 0.00 0.00 0.00 93 1028.1
20260509223030 5 5 0.0 1.6 0.00 0.00 0.00 93 1028.1
20260509221525 4 5 0.0 0.0 0.00 0.00 0.00 93 1027.9
20260509220124 3 5 0.0 0.0 0.00 0.00 0.00 93 1027.8
20260509214559 3 6 0.0 0.0 0.00 0.00 0.00 93 1027.7
20260509213044 2 6 0.0 0.0 0.00 0.00 0.00 93 1027.6
20260509211536 1 6 0.0 0.0 0.00 0.00 0.00 90 1027.4
20260509210032 0 6 0.0 0.0 0.00 0.00 0.00 90 1027.3
20260509204529 0 6 0.0 0.0 0.00 0.00 0.00 89 1027.2
20260509203035 0 6 0.0 0.0 0.00 0.00 0.00 89 1027.0
20260509201555 0 6 0.0 0.0 0.00 0.00 0.00 90 1026.8
20260509200107 0 6 0.0 0.0 0.00 0.00 0.00 89 1026.7
20260509194522 0 6 0.0 0.0 0.00 0.00 0.00 89 1026.3
20260509193020 1 6 0.0 0.0 0.00 0.00 0.00 89 1025.9
20260509191510 0 6 0.0 3.2 0.00 0.00 0.00 88 1025.8
20260509190008 0 8 0.0 1.6 0.00 0.00 0.00 88 1025.6
20260509184507 1 8 0.0 0.0 0.00 0.00 0.00 87 1025.5
20260509183003 1 8 0.0 0.0 0.00 0.00 0.00 88 1025.4
20260509181531 1 8 0.0 0.0 0.00 0.00 0.00 88 1025.2
20260509180027 1 8 0.0 0.0 0.00 0.00 0.00 88 1025.1
20260509174537 1 8 0.0 0.0 0.00 0.00 0.00 88 1025.0
20260509173019 2 8 0.0 0.0 0.00 0.00 0.00 88 1025.0
20260509171516 2 8 0.0 0.0 0.00 0.00 0.00 88 1025.1
20260509170016 2 8 0.0 0.0 0.00 0.00 0.00 87 1025.1
20260509164514 2 8 0.0 0.0 0.00 0.00 0.00 87 1025.0
20260509163013 2 8 0.0 0.0 0.00 0.00 0.00 87 1025.0
20260509161506 2 8 0.0 0.0 0.00 0.00 0.00 85 1025.2
20260509160004 2 8 0.0 0.0 0.00 0.00 0.00 86 1025.1
20260509154502 3 8 0.0 0.0 0.00 0.00 0.00 86 1025.2
20260509153000 3 8 0.0 0.0 0.00 0.00 0.00 86 1025.1
20260509151559 2 8 0.0 0.0 0.00 0.00 0.00 85 1025.1
20260509150052 3 8 0.0 0.0 0.00 0.00 0.00 84 1025.0
20260509144549 3 8 0.0 0.0 0.00 0.00 0.00 84 1025.0
20260509143056 3 8 0.0 4.8 0.00 0.00 0.00 84 1025.0
20260509141541 3 39 0.0 0.0 0.00 0.00 0.00 83 1025.0
20260509140046 4 55 0.0 0.0 0.00 0.00 0.00 83 1024.9
20260509134536 4 55 0.0 0.0 0.00 0.00 0.00 82 1024.9
20260509133034 5 55 0.0 0.0 0.00 0.00 0.00 81 1025.0
20260509131502 5 55 0.0 0.0 0.00 0.00 0.00 81 1024.8
20260509130101 5 55 0.0 0.0 0.00 0.00 0.00 80 1024.8
20260509124554 5 55 0.0 0.0 0.00 0.00 0.00 80 1024.7
20260509123114 5 55 0.0 0.0 0.00 0.00 0.00 79 1024.5
20260509121547 5 55 0.0 0.0 0.00 0.00 0.00 77 1024.6
20260509120045 6 54 0.0 0.0 0.00 0.00 0.00 76 1024.5
20260509114537 7 54 0.0 0.0 0.00 0.00 0.00 76 1024.3
20260509113037 6 59 0.0 0.0 0.00 0.00 0.00 76 1024.5
20260509111533 7 64 0.0 0.0 0.00 0.00 0.00 75 1024.4
20260509110030 7 63 0.0 1.6 0.00 0.00 0.00 74 1024.3
20260509104558 7 60 1.6 4.8 0.00 0.00 0.00 74 1024.2
20260509103102 7 79 0.0 3.2 0.00 0.00 0.00 72 1024.2
20260509101548 8 79 1.6 4.8 0.00 0.00 0.00 70 1024.0
20260509100050 8 78 3.2 6.4 0.00 0.00 0.00 70 1023.9